This is the latest recevied weather packets stored in our database for station/object F5LKO-13. If no packets are shown the sender has not sent any weather packets the latest 10 day(s).
| Time | Temp. | Humidity | Pressure | Rain* | Wind** | Luminosity | Snow |
|---|---|---|---|---|---|---|---|
| 1777644342 | 23.89° C | 99% | 1020.4 hPa | 0 mm | - | 49 W/m² | - |
| 1777644044 | 24.44° C | 99% | 1020.5 hPa | 0 mm | - | 53 W/m² | - |
| 1777643728 | 23.33° C | 99% | 1020.5 hPa | 0 mm | - | 59 W/m² | - |
| 1777643422 | 24.44° C | 99% | 1020.5 hPa | 0 mm | - | 56 W/m² | - |
| 1777643116 | 23.89° C | 99% | 1020.5 hPa | 0 mm | - | 67 W/m² | - |
| 1777642810 | 24.44° C | 99% | 1020.5 hPa | 0 mm | - | 48 W/m² | - |
| 1777642504 | 23.33° C | 99% | 1020.6 hPa | 0 mm | - | 76 W/m² | - |
| 1777642206 | 23.33° C | 99% | 1020.6 hPa | 0 mm | - | 72 W/m² | - |
| 1777641892 | 23.89° C | 99% | 1020.7 hPa | 0 mm | - | 72 W/m² | - |
| 1777641586 | 23.33° C | 99% | 1020.6 hPa | 0 mm | - | 76 W/m² | - |
| 1777641280 | 23.33° C | 99% | 1020.7 hPa | 0 mm | - | 83 W/m² | - |
| 1777640974 | 23.33° C | 99% | 1020.7 hPa | 0 mm | - | 33 W/m² | - |
| 1777640668 | 22.78° C | 99% | 1020.7 hPa | 0 mm | - | 86 W/m² | - |
| 1777640371 | 23.33° C | 99% | 1020.8 hPa | 0 mm | - | 91 W/m² | - |
| 1777640055 | 23.89° C | 99% | 1020.8 hPa | 0 mm | - | 94 W/m² | - |
| 1777639749 | 22.78° C | 99% | 1020.9 hPa | 0 mm | - | 84 W/m² | - |
| 1777639443 | 22.78° C | 99% | 1020.9 hPa | 0 mm | - | 81 W/m² | - |
| 1777639137 | 22.78° C | 99% | 1020.9 hPa | 0 mm | - | 83 W/m² | - |
| 1777638831 | 23.33° C | 99% | 1020.9 hPa | 0 mm | - | 85 W/m² | - |
| 1777638533 | 22.78° C | 99% | 1020.9 hPa | 0 mm | - | 93 W/m² | - |
| 1777638219 | 21.67° C | 99% | 1021 hPa | 0 mm | - | 46 W/m² | - |
| 1777637913 | 22.78° C | 99% | 1021 hPa | 0 mm | - | 15 W/m² | - |
| 1777637607 | 22.22° C | 99% | 1021.1 hPa | 0 mm | - | 66 W/m² | - |
| 1777637301 | 21.11° C | 99% | 1021.2 hPa | 0 mm | - | 59 W/m² | - |
| 1777636995 | 21.11° C | 99% | 1021.3 hPa | 0 mm | - | 21 W/m² | - |
* Rain latest hour (hover to see other rain measurements)
** Current wind speed in m/s (hover to see current wind gust speed)